TimeEDT,TemperatureF,Dew PointF,Humidity,Sea Level PressureIn,VisibilityMPH,Wind Direction,Wind SpeedMPH,Gust SpeedMPH,PrecipitationIn,Events,Conditions,WindDirDegrees,DateUTC
12:53 AM,32.0,25.0,75,30.01,10.0,Calm,Calm,-,N/A,,Clear,0,2013-04-05 04:53:00
1:53 AM,30.0,23.0,75,30.01,10.0,Calm,Calm,-,N/A,,Clear,0,2013-04-05 05:53:00
2:53 AM,30.0,24.1,79,30.01,10.0,Calm,Calm,-,N/A,,Clear,0,2013-04-05 06:53:00
3:53 AM,28.0,21.9,78,30.01,10.0,Calm,Calm,-,N/A,,Clear,0,2013-04-05 07:53:00
4:53 AM,27.0,23.0,85,30.02,10.0,Calm,Calm,-,N/A,,Clear,0,2013-04-05 08:53:00
5:53 AM,27.0,21.9,81,30.04,10.0,Calm,Calm,-,N/A,,Clear,0,2013-04-05 09:53:00
6:53 AM,27.0,21.9,81,30.04,10.0,Calm,Calm,-,N/A,,Clear,0,2013-04-05 10:53:00
7:53 AM,28.9,25.0,85,30.07,10.0,Calm,Calm,-,N/A,,Clear,0,2013-04-05 11:53:00
8:53 AM,36.0,28.0,73,30.08,10.0,Calm,Calm,-,N/A,,Clear,0,2013-04-05 12:53:00
9:53 AM,45.0,28.9,53,30.08,10.0,Calm,Calm,-,N/A,,Partly Cloudy,0,2013-04-05 13:53:00
10:53 AM,53.1,28.9,40,30.08,10.0,WNW,5.8,-,N/A,,Clear,300,2013-04-05 14:53:00
11:53 AM,57.0,30.9,37,30.08,10.0,Variable,5.8,-,N/A,,Clear,0,2013-04-05 15:53:00
12:53 PM,59.0,35.1,41,30.07,10.0,WNW,11.5,17.3,N/A,,Partly Cloudy,300,2013-04-05 16:53:00
1:53 PM,61.0,33.1,35,30.07,10.0,NW,9.2,19.6,N/A,,Clear,320,2013-04-05 17:53:00
2:24 PM,60.8,30.2,31,30.06,10.0,NNW,13.8,21.9,N/A,,Clear,340,2013-04-05 18:24:00
2:53 PM,60.1,28.9,31,30.07,10.0,NW,11.5,18.4,N/A,,Clear,320,2013-04-05 18:53:00
3:53 PM,61.0,27.0,27,30.06,10.0,NNW,9.2,19.6,N/A,,Clear,340,2013-04-05 19:53:00
4:53 PM,60.1,28.0,30,30.06,10.0,North,5.8,20.7,N/A,,Clear,10,2013-04-05 20:53:00
5:53 PM,59.0,27.0,29,30.07,10.0,NNW,8.1,17.3,N/A,,Clear,340,2013-04-05 21:53:00
6:53 PM,57.0,27.0,32,30.09,10.0,North,6.9,-,N/A,,Clear,10,2013-04-05 22:53:00
7:53 PM,53.1,28.0,38,30.10,10.0,North,6.9,-,N/A,,Clear,10,2013-04-05 23:53:00
8:53 PM,48.9,28.0,44,30.13,10.0,North,5.8,-,N/A,,Clear,10,2013-04-06 00:53:00
9:53 PM,46.9,27.0,46,30.15,10.0,NNE,4.6,-,N/A,,Clear,20,2013-04-06 01:53:00
10:53 PM,41.0,27.0,57,30.16,10.0,Calm,Calm,-,N/A,,Clear,0,2013-04-06 02:53:00
11:53 PM,39.0,28.0,65,30.16,10.0,Calm,Calm,-,N/A,,Clear,0,2013-04-06 03:53:00